| time (UTC) | temp C | wind direction | speed KPH | gust KPH | rain 1hr cm | rain 24hr cm | rain mn cm | humidity % | barometer mb |
| 20260504224537 | 21 | 158 | 1.6 | 8.0 | 0.00 | 0.00 | 0.00 | 36 | 1006.1 |
| 20260504223537 | 22 | 180 | 3.2 | 16.1 | 0.00 | 0.00 | 0.00 | 33 | 1006.0 |
| 20260504222537 | 22 | 113 | 1.6 | 8.0 | 0.00 | 0.00 | 0.00 | 34 | 1005.9 |
| 20260504221538 | 22 | 135 | 1.6 | 6.4 | 0.00 | 0.00 | 0.00 | 34 | 1005.9 |
| 20260504220557 | 22 | 135 | 1.6 | 4.8 | 0.00 | 0.00 | 0.00 | 34 | 1005.9 |
| 20260504215537 | 22 | 158 | 4.8 | 11.3 | 0.00 | 0.00 | 0.00 | 32 | 1006.0 |
| 20260504214537 | 22 | 158 | 3.2 | 20.9 | 0.00 | 0.00 | 0.00 | 32 | 1006.0 |
| 20260504213537 | 22 | 180 | 4.8 | 16.1 | 0.00 | 0.00 | 0.00 | 31 | 1006.0 |
| 20260504212537 | 22 | 135 | 4.8 | 11.3 | 0.00 | 0.00 | 0.00 | 31 | 1006.0 |
| 20260504211537 | 22 | 135 | 1.6 | 4.8 | 0.00 | 0.00 | 0.00 | 32 | 1006.0 |
| 20260504210537 | 22 | 135 | 6.4 | 17.7 | 0.00 | 0.00 | 0.00 | 31 | 1006.0 |
| 20260504205537 | 22 | 158 | 3.2 | 11.3 | 0.00 | 0.00 | 0.00 | 32 | 1006.0 |
| 20260504204537 | 22 | 90 | 4.8 | 24.1 | 0.00 | 0.00 | 0.00 | 31 | 1005.9 |
| 20260504203537 | 22 | 135 | 4.8 | 11.3 | 0.00 | 0.00 | 0.00 | 31 | 1005.8 |
| 20260504202618 | 22 | 113 | 3.2 | 9.7 | 0.00 | 0.00 | 0.00 | 32 | 1006.0 |
| 20260504201537 | 22 | 90 | 4.8 | 12.9 | 0.00 | 0.00 | 0.00 | 31 | 1006.0 |
| 20260504200537 | 22 | 158 | 6.4 | 17.7 | 0.00 | 0.00 | 0.00 | 30 | 1006.0 |
| 20260504195557 | 23 | 113 | 4.8 | 12.9 | 0.00 | 0.00 | 0.00 | 29 | 1006.1 |
| 20260504194537 | 23 | 158 | 1.6 | 9.7 | 0.00 | 0.00 | 0.00 | 29 | 1006.1 |
| 20260504193537 | 23 | 158 | 3.2 | 19.3 | 0.00 | 0.00 | 0.00 | 30 | 1006.2 |
| 20260504192537 | 22 | 90 | 4.8 | 14.5 | 0.00 | 0.00 | 0.00 | 29 | 1006.1 |
| 20260504191658 | 22 | 158 | 3.2 | 14.5 | 0.00 | 0.00 | 0.00 | 30 | 1006.1 |
| 20260504190537 | 22 | 113 | 3.2 | 9.7 | 0.00 | 0.00 | 0.00 | 30 | 1006.2 |
| 20260504185537 | 22 | 180 | 4.8 | 12.9 | 0.00 | 0.00 | 0.00 | 28 | 1006.3 |
| 20260504184537 | 22 | 135 | 3.2 | 17.7 | 0.00 | 0.00 | 0.00 | 30 | 1006.5 |
| 20260504183537 | 22 | 113 | 6.4 | 17.7 | 0.00 | 0.00 | 0.00 | 28 | 1006.5 |
| 20260504182537 | 22 | 158 | 3.2 | 11.3 | 0.00 | 0.00 | 0.00 | 32 | 1006.6 |
| 20260504181538 | 22 | 180 | 3.2 | 16.1 | 0.00 | 0.00 | 0.00 | 31 | 1006.6 |
| 20260504180557 | 21 | 180 | 3.2 | 9.7 | 0.00 | 0.00 | 0.00 | 32 | 1006.7 |
| 20260504175537 | 21 | 135 | 4.8 | 14.5 | 0.00 | 0.00 | 0.00 | 32 | 1006.7 |
| 20260504174757 | 21 | 90 | 6.4 | 20.9 | 0.00 | 0.00 | 0.00 | 32 | 1006.8 |
| 20260504173537 | 21 | 113 | 4.8 | 11.3 | 0.00 | 0.00 | 0.00 | 32 | 1007.0 |
| 20260504172537 | 21 | 158 | 3.2 | 11.3 | 0.00 | 0.00 | 0.00 | 33 | 1007.1 |
| 20260504171537 | 21 | 158 | 6.4 | 20.9 | 0.00 | 0.00 | 0.00 | 33 | 1007.1 |
| 20260504170537 | 20 | 90 | 6.4 | 16.1 | 0.00 | 0.00 | 0.00 | 34 | 1007.2 |
| 20260504150557 | 18 | 135 | 4.8 | 24.1 | 0.00 | 0.00 | 0.00 | 37 | 1008.5 |
| 20260504140539 | 17 | 0.0 | 3.2 | 0.00 | 0.00 | 0.00 | 43 | 1008.9 | |
| 20260504130537 | 13 | 0.0 | 8.0 | 0.00 | 0.00 | 0.00 | 52 | 1009.9 | |
| 20260504110539 | 8 | 0.0 | 0.0 | 0.00 | 0.00 | 0.00 | 64 | 1010.2 | |
| 20260504100539 | 7 | 0.0 | 0.0 | 0.00 | 0.00 | 0.00 | 67 | 1010.1 | |
| 20260504081539 | 6 | 0.0 | 0.0 | 0.00 | 0.00 | 0.00 | 75 | 1010.0 | |
| 20260504080539 | 5 | 0.0 | 0.0 | 0.00 | 0.00 | 0.00 | 74 | 1009.9 | |
| 20260504050559 | 3 | 0.0 | 0.0 | 0.00 | 0.00 | 0.00 | 83 | 1009.8 | |
| 20260504045539 | 3 | 0.0 | 0.0 | 0.00 | 0.00 | 0.00 | 83 | 1010.0 | |
| 20260504044539 | 3 | 0.0 | 0.0 | 0.00 | 0.00 | 0.00 | 82 | 1010.0 | |
| 20260504043539 | 3 | 0.0 | 0.0 | 0.00 | 0.00 | 0.00 | 81 | 1010.0 | |
| 20260504042539 | 3 | 0.0 | 0.0 | 0.00 | 0.00 | 0.00 | 80 | 1009.9 | |
| 20260504041539 | 3 | 0.0 | 0.0 | 0.00 | 0.00 | 0.00 | 80 | 1009.9 | |
| 20260504040539 | 3 | 0.0 | 0.0 | 0.00 | 0.00 | 0.00 | 80 | 1009.7 | |
| 20260504035538 | 3 | 0.0 | 0.0 | 0.00 | 0.00 | 0.00 | 79 | 1009.7 | |
| 20260504034538 | 3 | 0.0 | 0.0 | 0.00 | 0.00 | 0.00 | 78 | 1009.7 | |
| 20260504033538 | 4 | 0.0 | 0.0 | 0.00 | 0.00 | 0.00 | 77 | 1009.5 | |
| 20260504032557 | 4 | 0.0 | 0.0 | 0.00 | 0.00 | 0.00 | 76 | 1009.4 | |
| 20260504031538 | 4 | 0.0 | 0.0 | 0.00 | 0.00 | 0.00 | 76 | 1009.4 | |
| 20260504030558 | 5 | 0.0 | 0.0 | 0.00 | 0.00 | 0.00 | 75 | 1009.4 | |
| 20260504025537 | 5 | 0.0 | 0.0 | 0.00 | 0.00 | 0.00 | 74 | 1009.4 | |
| 20260504024538 | 5 | 0.0 | 0.0 | 0.00 | 0.00 | 0.00 | 73 | 1009.3 | |
| 20260504023538 | 5 | 0.0 | 0.0 | 0.00 | 0.00 | 0.00 | 71 | 1009.3 | |
| 20260504022538 | 6 | 0.0 | 0.0 | 0.00 | 0.00 | 0.00 | 70 | 1009.3 | |
| 20260504021538 | 6 | 0.0 | 0.0 | 0.00 | 0.00 | 0.00 | 69 | 1009.3 | |
| 20260504020558 | 6 | 0.0 | 0.0 | 0.00 | 0.00 | 0.00 | 67 | 1009.3 | |
| 20260504015558 | 6 | 0.0 | 0.0 | 0.00 | 0.00 | 0.00 | 66 | 1009.2 | |
| 20260504014538 | 7 | 0.0 | 0.0 | 0.00 | 0.00 | 0.00 | 65 | 1009.1 | |
| 20260504013538 | 7 | 0.0 | 0.0 | 0.00 | 0.00 | 0.00 | 64 | 1009.1 | |
| 20260504012538 | 7 | 0.0 | 0.0 | 0.00 | 0.00 | 0.00 | 62 | 1009.0 | |
| 20260504011537 | 7 | 0.0 | 0.0 | 0.00 | 0.00 | 0.00 | 60 | 1008.9 | |
| 20260504010537 | 8 | 0.0 | 0.0 | 0.00 | 0.00 | 0.00 | 57 | 1008.9 | |
| 20260504005558 | 8 | 0.0 | 0.0 | 0.00 | 0.00 | 0.00 | 54 | 1008.7 | |
| 20260504004538 | 8 | 0.0 | 0.0 | 0.00 | 0.00 | 0.00 | 53 | 1008.6 | |
| 20260504003537 | 8 | 0.0 | 0.0 | 0.00 | 0.00 | 0.00 | 51 | 1008.4 | |
| 20260504002538 | 9 | 0.0 | 0.0 | 0.00 | 0.00 | 0.00 | 50 | 1008.3 | |
| 20260504001537 | 10 | 0.0 | 0.0 | 0.00 | 0.00 | 0.00 | 48 | 1008.2 | |
| 20260504000558 | 10 | 0.0 | 0.0 | 0.00 | 0.00 | 0.00 | 46 | 1008.2 | |
| 20260503235537 | 10 | 0.0 | 0.0 | 0.00 | 0.00 | 0.00 | 46 | 1008.0 | |
| 20260503234538 | 10 | 0.0 | 0.0 | 0.00 | 0.00 | 0.00 | 44 | 1008.0 | |
| 20260503233538 | 11 | 0.0 | 0.0 | 0.00 | 0.00 | 0.00 | 43 | 1007.9 | |
| 20260503232537 | 11 | 0.0 | 0.0 | 0.00 | 0.00 | 0.00 | 43 | 1007.8 | |
| 20260503231537 | 11 | 0.0 | 3.2 | 0.00 | 0.00 | 0.00 | 41 | 1007.7 | |
| 20260503230538 | 11 | 0.0 | 8.0 | 0.00 | 0.00 | 0.00 | 41 | 1007.6 | |
| 20260503225537 | 11 | 203 | 1.6 | 8.0 | 0.00 | 0.00 | 0.00 | 41 | 1007.5 |